[[{"header":{"parameterUnit":"m.s-1","parameterCategory":1,"la1":30.2991,"la2":30.254,"lo1":-89.0895,"lo2":-89.0444,"dy":0.0017,"dx":0.0017,"nx":28,"ny":28,"refTime":"2024-08-12T09:00:00:Z","depth":0,"parameterNumber":2,"parameterNumberName":"U-component_of_WINDS"},"data":[0,0,0,0,0,0,0,0,0,0,0,0,0,0,0,0,0,0,0,0,0,0,0,0,0,0,0,0,0,0,0,0,0,0,0,0,0,0,0,0,0,0,0,0,0,0,0,0,0,0,0,0,0,0,0,0,0,0,1.1389,1.139,0,1.1514,1.1515,1.1517,1.1549,1.1548,1.1548,1.1547,1.168,1.1684,1.1688,0,0,0,0,0,0,0,0,0,0,0,0,0,1.1181,1.1184,1.1388,1.139,1.1392,1.1514,1.1515,1.1517,1.1549,1.1548,1.1547,1.1547,1.1678,1.1683,1.1689,0,0,0,0,0,0,0,0,0,0,0,0,0,1.1285,1.1185,1.1388,1.1422,1.1427,1.1513,1.1515,1.1518,1.155,1.1548,1.1547,1.1546,1.1677,1.1683,1.1689,1.1752,0,0,1.1709,1.1712,0,0,0,0,0,0,0,0,1.1279,1.1293,1.1416,1.142,1.1425,1.1515,1.1491,1.1596,1.155,1.1503,1.1547,1.1546,1.1626,1.1637,1.1663,1.1759,1.1764,1.1709,1.1713,1.1716,1.1718,0,0,0,0,0,0,0,1.1272,1.1287,1.1438,1.1417,1.1423,1.1433,1.1446,1.1511,1.157,1.1507,1.151,1.1524,1.1628,1.1657,1.1666,1.1766,1.1709,1.1715,1.1719,1.1721,1.192,1.1921,0,0,0,0,0,0,1.1258,1.1281,1.1434,1.1442,1.1347,1.1437,1.1452,1.1487,1.1569,1.158,1.1525,1.1525,1.1646,1.1659,1.1671,1.175,1.1716,1.1722,1.1726,1.1918,1.192,1.1922,0,0,0,0,0,0,1.1253,1.1271,1.1429,1.1362,1.1383,1.1442,1.1481,1.149,1.1518,1.1582,1.1593,1.1542,1.1646,1.1662,1.1731,1.1755,1.1725,1.1731,1.1917,1.1919,1.1921,1.1908,0,0,0,0,0,0,1.1247,1.127,1.1293,1.1363,1.1386,1.1486,1.1482,1.1494,1.1529,1.153,1.1602,1.1613,1.1646,1.1722,1.1738,1.1763,1.1736,1.1915,1.1918,1.192,1.1907,1.191,1.1912,0,0,0,0,0,1.124,1.1286,1.1294,1.1313,1.1417,1.1488,1.1501,1.1538,1.153,1.1555,1.1596,1.161,1.175,1.1729,1.1747,1.1775,1.1914,1.1917,1.192,1.1906,1.1909,1.1912,0,0,0,0,0,0,1.1219,1.1295,1.1306,1.1375,1.1424,1.1493,1.1525,1.154,1.1594,1.1593,1.1637,1.1653,1.1719,1.1754,1.1729,1.184,1.1832,1.1839,1.1815,1.1819,1.1821,1.1811,1.1741,0,0,0,0,0,1.1222,1.1272,1.1337,1.1392,1.1416,1.1466,1.1498,1.1522,1.1575,1.1597,1.1643,1.1695,1.1751,1.1787,1.1842,1.1912,1.1928,1.194,1.1943,1.1945,1.195,1.199,1.1996,1.1932,1.1932,1.1932,0,0,1.123,1.1278,1.1307,1.1389,1.143,1.1481,1.1484,1.1538,1.1577,1.1605,1.1673,1.1709,1.1771,1.1841,1.1874,1.1872,1.1971,1.1949,1.195,1.1955,1.1994,1.2,1.2005,1.1934,1.1934,1.1934,0,0,1.127,1.1311,1.1361,1.1402,1.1464,1.1497,1.1509,1.1575,1.1599,1.1668,1.169,1.1738,1.1832,1.1875,1.1909,1.1965,1.198,1.1982,1.1996,1.2034,1.2039,1.2044,1.2063,1.207,1.1987,1.1987,1.1987,0,1.1273,1.135,1.1386,1.1439,1.1474,1.1501,1.1552,1.1591,1.1667,1.1692,1.1688,1.1807,1.185,1.193,1.1944,1.1971,1.1986,1.1974,1.2035,1.204,1.2045,1.2064,1.2072,1.1987,1.1987,1.1987,1.1987,0,1.1349,1.1402,1.1436,1.1507,1.1547,1.1599,1.1644,1.168,1.1699,1.1733,1.1803,1.1856,1.1921,1.1942,1.1963,1.2025,1.2022,1.2026,1.2019,1.205,1.2069,1.2077,1.1987,1.1987,1.1987,1.1987,0,0,1.138,1.147,1.1482,1.1515,1.1584,1.1627,1.168,1.1743,1.1773,1.1825,1.1871,1.195,1.1954,1.1993,1.2019,1.2052,1.2092,1.2052,1.2054,1.2058,1.2164,1.2161,1.2169,1.2103,1.2104,1.2105,1.2159,0,1.1429,1.1524,1.1558,1.1637,1.1686,1.1712,1.1759,1.1807,1.184,1.1888,1.1925,1.198,1.1981,1.2005,1.2039,1.208,1.2114,1.2077,1.2147,1.2149,1.213,1.2179,1.2175,1.2223,1.2167,1.2168,1.2169,0,1.1498,1.1549,1.1632,1.1695,1.1718,1.1759,1.1819,1.1864,1.1919,1.1941,1.1984,1.2007,1.2065,1.2054,1.2135,1.2108,1.2139,1.2164,1.2166,1.2174,1.2161,1.2188,1.2239,1.2246,1.2181,1.218,1.2179,0,1.1512,1.1602,1.1663,1.169,1.1765,1.1794,1.1826,1.1881,1.1916,1.1969,1.1992,1.2052,1.2084,1.213,1.2169,1.2158,1.2247,1.2239,1.2267,1.2266,1.2284,1.2283,1.2342,1.2304,1.2304,1.2304,1.2304,0,1.1562,1.1612,1.167,1.1708,1.1765,1.1804,1.1859,1.1894,1.1942,1.1987,1.2014,1.2056,1.2105,1.2154,1.2186,1.2247,1.2262,1.2282,1.229,1.2279,1.2277,1.23,1.2298,1.2306,1.2306,1.2305,1.2305,0,1.1587,1.1628,1.1696,1.1761,1.1779,1.1818,1.1874,1.1912,1.1946,1.2003,1.2019,1.2073,1.2132,1.2175,1.2252,1.2273,1.2339,1.2347,1.232,1.2323,1.2349,1.2346,1.2425,1.2437,1.2391,1.2392,1.2392,0,1.1617,1.1655,1.1724,1.1756,1.1788,1.1839,1.1875,1.1915,1.1951,1.2017,1.2047,1.2108,1.2158,1.2252,1.2298,1.2357,1.2367,1.239,1.2376,1.2364,1.2367,1.2364,1.2368,1.2392,1.2392,1.2393,1.2393,0,1.1664,1.1682,1.1732,1.1789,1.1831,1.1878,1.1926,1.195,1.1999,1.2039,1.2099,1.2138,1.2215,1.2275,1.2339,1.2374,1.2392,1.2397,1.2406,1.2396,1.2379,1.2388,1.2325,1.2395,1.2395,1.2395,1.2395,1.2394,1.1692,1.1728,1.1781,1.1836,1.1876,1.192,1.1958,1.1996,1.2047,1.2112,1.2133,1.2195,1.225,1.2336,1.2372,1.2422,1.2421,1.2435,1.2438,1.2441,1.244,1.2371,1.2433,1.2433,1.2433,1.2433,1.2433,0,1.1741,1.1777,1.1827,1.1892,1.1935,1.1946,1.2,1.2035,1.2089,1.2138,1.2187,1.2255,1.2313,1.2364,1.2425,1.2455,1.2464,1.2469,1.2467,1.2475,1.2437,1.2423,1.246,1.246,1.246,1.246,1.246,1.246,1.1771,1.1832,1.1856,1.1937,1.1973,1.2032,1.2062,1.2102,1.2141,1.2216,1.2264,1.2296,1.2346,1.2411,1.2464,1.2478,1.2499,1.2502,1.2517,1.2481,1.2478,1.2475,1.2461,1.2506,1.2506,1.2551,1.2551,1.2552]},{"header":{"parameterUnit":"m.s-1","parameterCategory":1,"la1":30.2991,"la2":30.254,"lo1":-89.0895,"lo2":-89.0444,"dy":0.0017,"dx":0.0017,"nx":28,"ny":28,"refTime":"2024-08-12T09:00:00:Z","depth":0,"parameterNumber":3,"parameterNumberName":"V-component_of_WINDS"},"data":[0,0,0,0,0,0,0,0,0,0,0,0,0,0,0,0,0,0,0,0,0,0,0,0,0,0,0,0,0,0,0,0,0,0,0,0,0,0,0,0,0,0,0,0,0,0,0,0,0,0,0,0,0,0,0,0,0,0,3.4672,3.4672,0,3.4656,3.4656,3.4655,3.4608,3.4607,3.4606,3.4605,3.4583,3.4584,3.4584,0,0,0,0,0,0,0,0,0,0,0,0,0,3.4656,3.4656,3.4672,3.4672,3.4672,3.4656,3.4656,3.4655,3.4608,3.4606,3.4605,3.4604,3.4583,3.4584,3.4584,0,0,0,0,0,0,0,0,0,0,0,0,0,3.4653,3.4657,3.4672,3.4646,3.4644,3.4656,3.4656,3.4655,3.4608,3.4606,3.4605,3.4603,3.4583,3.4584,3.4584,3.4619,0,0,3.4586,3.4586,0,0,0,0,0,0,0,0,3.4654,3.4654,3.465,3.4648,3.4645,3.4632,3.4642,3.4643,3.4608,3.4622,3.4605,3.4603,3.4601,3.46,3.46,3.4618,3.4617,3.4586,3.4586,3.4587,3.4587,0,0,0,0,0,0,0,3.4654,3.4655,3.4666,3.465,3.4647,3.4633,3.4631,3.4642,3.462,3.462,3.4617,3.4616,3.4599,3.4599,3.4599,3.4617,3.4586,3.4587,3.4587,3.4587,3.4655,3.4657,0,0,0,0,0,0,3.4659,3.4655,3.4666,3.4665,3.4646,3.4635,3.4632,3.4638,3.462,3.4615,3.4617,3.4613,3.4599,3.4598,3.4598,3.4633,3.4587,3.4587,3.4588,3.4654,3.4656,3.4657,0,0,0,0,0,0,3.4658,3.466,3.4667,3.4659,3.4659,3.4637,3.4643,3.4638,3.4639,3.4617,3.4612,3.4622,3.4598,3.4597,3.4613,3.4631,3.4588,3.4588,3.4652,3.4654,3.4656,3.4705,0,0,0,0,0,0,3.4658,3.466,3.4675,3.466,3.466,3.4684,3.4645,3.4639,3.464,3.4636,3.462,3.4616,3.4597,3.4612,3.4613,3.4631,3.4589,3.465,3.4653,3.4656,3.4702,3.4709,3.4715,0,0,0,0,0,3.4658,3.469,3.4676,3.4678,3.4678,3.4686,3.4685,3.4663,3.4642,3.4655,3.464,3.4617,3.463,3.4614,3.4615,3.4634,3.4649,3.4652,3.4656,3.4699,3.4708,3.4715,0,0,0,0,0,0,3.4708,3.4688,3.4672,3.4701,3.4695,3.4678,3.4694,3.4674,3.4673,3.4668,3.4639,3.4636,3.4654,3.4646,3.4629,3.4663,3.4635,3.4639,3.4668,3.4676,3.4682,3.4682,3.4589,0,0,0,0,0,3.4722,3.4732,3.4713,3.474,3.4738,3.4717,3.4719,3.4702,3.4695,3.4692,3.4678,3.4671,3.4672,3.4674,3.4675,3.4701,3.4694,3.4714,3.472,3.4726,3.4728,3.4736,3.4743,3.4668,3.4668,3.4668,0,0,3.4752,3.4742,3.475,3.475,3.4744,3.4751,3.4715,3.4726,3.473,3.4693,3.4706,3.4696,3.4685,3.4704,3.4712,3.4698,3.4748,3.473,3.4734,3.4734,3.474,3.4747,3.4754,3.467,3.467,3.4669,0,0,3.4809,3.4805,3.4824,3.4818,3.4809,3.4794,3.4798,3.4783,3.4775,3.4788,3.4758,3.4762,3.4767,3.4759,3.4755,3.4805,3.4782,3.4806,3.4839,3.4847,3.4853,3.4858,3.4872,3.4878,3.481,3.481,3.481,0,3.4847,3.486,3.4837,3.4848,3.4847,3.4814,3.4831,3.4826,3.4817,3.4815,3.48,3.4802,3.4793,3.4807,3.4819,3.4819,3.482,3.4807,3.4855,3.486,3.4864,3.4876,3.4882,3.4812,3.4812,3.4812,3.4812,0,3.4903,3.4912,3.4929,3.492,3.4921,3.4936,3.4912,3.4915,3.4898,3.4883,3.4893,3.4881,3.4876,3.4879,3.4862,3.489,3.488,3.4861,3.4831,3.4874,3.4885,3.489,3.4816,3.4815,3.4815,3.4814,0,0,3.4992,3.4969,3.4975,3.4969,3.4955,3.496,3.4971,3.4967,3.4968,3.4962,3.4968,3.4971,3.4951,3.4947,3.4929,3.4936,3.497,3.4914,3.4913,3.4922,3.4995,3.5008,3.5014,3.4956,3.4957,3.4957,3.4994,0,3.5043,3.5062,3.504,3.5062,3.5067,3.5034,3.5043,3.5033,3.5019,3.5019,3.5003,3.5004,3.498,3.4977,3.4983,3.4965,3.4984,3.4963,3.4957,3.4957,3.4958,3.5021,3.5035,3.5071,3.4999,3.5,3.5,0,3.5105,3.5101,3.5124,3.5104,3.5105,3.5114,3.5106,3.5108,3.5095,3.5083,3.5078,3.5055,3.5061,3.5034,3.5039,3.5025,3.5021,3.5012,3.5012,3.5009,3.498,3.5015,3.5082,3.5086,3.5008,3.5007,3.5007,0,3.5161,3.5162,3.5174,3.5171,3.515,3.5155,3.5147,3.5132,3.513,3.5122,3.5119,3.5113,3.5108,3.5102,3.5077,3.5061,3.5083,3.5056,3.5071,3.5071,3.5075,3.5075,3.514,3.5079,3.5079,3.5078,3.5078,0,3.5218,3.5232,3.5199,3.5206,3.522,3.5193,3.5206,3.5194,3.5181,3.5183,3.5154,3.5156,3.5125,3.5122,3.5102,3.5107,3.5106,3.5095,3.5088,3.5095,3.5096,3.5091,3.5086,3.508,3.508,3.5079,3.5079,0,3.5282,3.5262,3.5272,3.5251,3.5245,3.5256,3.5236,3.524,3.5223,3.5226,3.5225,3.5198,3.5193,3.5168,3.5158,3.5144,3.5154,3.5145,3.5159,3.5154,3.5169,3.5167,3.523,3.5235,3.5174,3.5175,3.5175,0,3.5318,3.5328,3.5307,3.5306,3.5299,3.5299,3.5296,3.5269,3.5266,3.525,3.5255,3.5249,3.5241,3.5234,3.5212,3.5203,3.5191,3.5214,3.5189,3.5194,3.5187,3.5185,3.5184,3.5218,3.5219,3.522,3.522,0,3.5382,3.5371,3.5368,3.5361,3.5358,3.5351,3.5342,3.5343,3.5313,3.5311,3.5306,3.53,3.5288,3.528,3.5267,3.5254,3.5231,3.5228,3.523,3.5236,3.5242,3.5235,3.5169,3.5226,3.5226,3.5225,3.5225,3.5225,3.5431,3.5436,3.5421,3.5418,3.5408,3.54,3.5401,3.5385,3.5381,3.5369,3.5354,3.535,3.5332,3.5312,3.5301,3.5295,3.5283,3.5287,3.5287,3.5288,3.529,3.5246,3.5293,3.5293,3.5293,3.5293,3.5292,0,3.549,3.5478,3.5476,3.5463,3.546,3.544,3.5428,3.5426,3.5423,3.541,3.5403,3.5394,3.5386,3.5363,3.5351,3.535,3.5339,3.5348,3.5346,3.5343,3.5304,3.5301,3.5357,3.5357,3.5357,3.5357,3.5357,3.5357,3.552,3.5527,3.5513,3.5513,3.5501,3.5498,3.5492,3.5482,3.5471,3.5464,3.5457,3.5442,3.5423,3.541,3.5399,3.5392,3.5388,3.5399,3.5389,3.5352,3.5346,3.534,3.5337,3.54,3.54,3.5427,3.5428,3.5428]}]]